User: anonymous   Login
Location: Prairie State College
(41.5244°N, 87.6382°W)
Time: 12:18:45
(UTC-05:00)
Language:

Cosmos 1140 Rocket - Orbit

View from above orbital plane
View from above orbital plane
View from above satellite
View from above satellite

Ground track
Ground track

The orbit data is extracted from the following two-line orbital elements,

1 11574U 79089B   16269.20700782  .00000054  00000-0  25055-4 0  9991
2 11574  74.0716 348.1410 0016787 317.6517  42.3341 14.40591472938986
Epoch (UTC): 25 September 2016 04:58:05
Eccentricity: 0.0016787
inclination: 74.0716°
perigee height: 744 km
apogee height: 768 km
right ascension of ascending node: 348.1410°
argument of perigee: 317.6517°
revolutions per day: 14.40591472
mean anomaly at epoch: 42.3341°
orbit number at epoch: 93898

The dashed part of the orbit path shows where the satellite is in the earth's shadow,  

DLR